This demonstration page uses our WeatherBlox Daily Observations layout. Learn more.

Left ArrowRight Arrow

Hourly Observations for December 18, 2020

Temp ( °F °C ) Dew Point ( °F °C ) Humidity (%) Winds ( mph kmh ) Pressure ( in mb ) Visibility ( mi km ) Precip ( " mm )
12:51 am 00:51 Clear 41 5 23 -5 49 49 Calm 29.89 1012 10 16.0934 0 0
1:51 am 01:51 Clear 39 3.9 23 -5 53 53 ESE 3 6 29.9 1013 10 16.0934 0 0
2:51 am 02:51 Clear 36 2.2 23 -5 59 59 ENE 5 7 29.91 1013 10 16.0934 0 0
3:51 am 03:51 Clear 34 1.1 23 -5 64 64 N 6 9 29.92 1013 10 16.0934 0 0
4:51 am 04:51 Clear 37 2.8 22 -5.6 54 54 NNE 5 7 29.93 1014 10 16.0934 0 0
5:51 am 05:51 Clear 33 0.6 22 -5.6 64 64 Calm 29.96 1015 10 16.0934 0 0
6:51 am 06:51 Clear 32 0 22 -5.6 66 66 Calm 30 1016 10 16.0934 0 0
7:51 am 07:51 Sunny 34 1.1 22 -5.6 61 61 NW 6 9 30.02 1017 10 16.0934 0 0
8:51 am 08:51 Sunny 40 4.4 23 -5 51 51 Calm 30.04 1017 10 16.0934 0 0
9:51 am 09:51 Sunny 48 8.9 23 -5 37 37 Calm 30.05 1018 10 16.0934 0 0
10:51 am 10:51 Sunny 53 11.7 21 -6.1 28 28 Calm 30.04 1017 10 16.0934 0 0
11:51 am 11:51 Sunny 58 14.4 21 -6.1 24 24 Calm 30.01 1016 10 16.0934 0 0
12:51 pm 12:51 Sunny 58 14.4 22 -5.6 25 25 VRB 7 11 29.99 1016 10 16.0934 0 0
1:51 pm 13:51 Sunny 63 17.2 19 -7.2 18 18 WNW 13 20 29.98 1015 10 16.0934 0 0
2:51 pm 14:51 Sunny 63 17.2 21 -6.1 20 20 NW 18 30 29.98 1015 10 16.0934 0 0
3:51 pm 15:51 Sunny 61 16.1 21 -6.1 21 21 NW 15 24 30.01 1016 10 16.0934 0 0
4:51 pm 16:51 Sunny 59 15 21 -6.1 23 23 NW 15 24 30.04 1017 10 16.0934 0 0
5:51 pm 17:51 Clear 53 11.7 22 -5.6 30 30 NW 7 11 30.09 1019 10 16.0934 0 0
6:51 pm 18:51 Clear 50 10 23 -5 35 35 NNW 10 17 30.12 1020 10 16.0934 0 0
7:51 pm 19:51 Clear 50 10 23 -5 35 35 N 7 11 30.14 1021 10 16.0934 0 0
8:51 pm 20:51 Clear 47 8.3 24 -4.4 41 41 NNW 8 13 30.16 1021 10 16.0934 0 0
9:51 pm 21:51 Clear 44 6.7 24 -4.4 45 45 NW 8 13 30.18 1022 10 16.0934 0 0
10:51 pm 22:51 Clear 43 6.1 25 -3.9 49 49 N 6 9 30.19 1022 10 16.0934 0 0
11:51 pm 23:51 Clear 39 3.9 24 -4.4 55 55 SE 3 6 30.19 1023 10 16.0934 0 0

Powered by AerisWeather